Location: Drocourt
(49.0571°N, 1.7669°E)
Time: 07:38:39
(UTC+00:00)

SR - Pass Details

Date: 29 April 2024
Orbit: 579 x 859 km, 66.7° (Epoch: 26 May)

Event Time Altitude Azimuth Distance (km) Brightness Sun altitude
Exits shadow 02:11:25 - 283° (WNW) 2,723 ? -19.1°
Reaches altitude 10° 02:13:13 10° 297° (WNW) 2,247 ? -18.9°
Maximum altitude 02:16:15 16° 334° (NNW) 1,841 ? -18.6°
Drops below altitude 10° 02:19:09 10° 10° (N) 2,138 ? -18.4°
Sets 02:22:19 0° 34° (NNE) 2,995 ? -18.0°
